Change the Weather History Date:

Wednesday, August 20, 2014

  Actual Average Record
Temperature  
Mean Temperature 87 °F 82 °F  
Max Temperature 96 °F 91 °F 100 °F (2005)
Min Temperature 77 °F 73 °F 59 °F (1940)
Degree Days  
Heating Degree Days 0 0  
Month to date heating degree days 0 0  
Since 1 June heating degree days 0 0  
Since 1 July heating degree days 0 0  
Cooling Degree Days 22 17  
Month to date cooling degree days 329 352  
Year to date cooling degree days 1484 1660  
Since 1 June cooling degree days 1173 1339  
Growing Degree Days 36 (Base 50)    
Moisture  
Dew Point 72 °F    
Average Humidity 65    
Maximum Humidity 88    
Minimum Humidity 41    
Precipitation  
Precipitation 0.00 in 0.09 in 3.75 in (1888)
Month to date precipitation 0.93 2.05  
Year to date precipitation 42.85 34.55  
Snow  
Snow 0.00 in 0.00 in - ()
Month to date snowfall 0.0 0.0  
Since 1 June snowfall 0.0 0.0  
Since 1 July snowfall 0.0 0.0  
Snow Depth 0.00 in    
Sea Level Pressure  
Sea Level Pressure 29.98 in    
Wind  
Wind Speed 8 mph (SW)    
Max Wind Speed 16 mph    
Max Gust Speed 26 mph    
Visibility 10 miles    
Events      
T = Trace of Precipitation, MM = Missing Value Source: NWS Daily Summary

Daily Weather History Graph

Daily Weather History Graph

Search for Another Location

Airport or City:

Trip Planner

Search our weather history database for the weather conditions in past years. The results will help you decide how hot, cold, wet, or windy it might be!

Date:

Astronomy

Aug. 20, 2014 Rise Set
Actual Time 6:23 AM CDT 7:42 PM CDT
Civil Twilight 5:57 AM CDT 8:08 PM CDT
Nautical Twilight 5:25 AM CDT 8:40 PM CDT
Astronomical Twilight 4:52 AM CDT 9:13 PM CDT
Moon 2:07 AM CDT (8/20) 4:23 PM CDT (8/20)
Length of Visible Light 14h 11m
Length of Day
13h 18m
Waning Crescent, 20% of the Moon is Illuminated
Aug 20
Waning Crescent
Aug 25
New
Sep 2
First Quarter
Sep 8
Full
Sep 15
Last Quarter

Hourly Weather History & Observations

Time (CDT) Temp. Heat Index Dew Point Humidity Pressure Visibility Wind Dir Wind Speed Gust Speed Precip Events Conditions
12:54 AM 82.9 °F 90.8 °F 75.9 °F 79% 29.88 in 10.0 mi WSW 11.5 mph - N/A   Clear
1:54 AM 81.0 °F 87.3 °F 75.9 °F 85% 29.88 in 10.0 mi SW 8.1 mph - N/A   Clear
2:54 AM 80.1 °F 85.1 °F 75.0 °F 85% 29.89 in 10.0 mi SW 4.6 mph - N/A   Clear
3:54 AM 79.0 °F - 73.9 °F 84% 29.91 in 10.0 mi SSW 5.8 mph - N/A   Clear
4:54 AM 78.1 °F - 73.9 °F 87% 29.92 in 10.0 mi Calm Calm - N/A   Clear
5:54 AM 77.0 °F - 73.0 °F 88% 29.94 in 10.0 mi SW 4.6 mph - N/A   Partly Cloudy
6:54 AM 77.0 °F - 73.0 °F 88% 29.96 in 10.0 mi SSW 4.6 mph - N/A   Partly Cloudy
7:54 AM 80.1 °F 84.5 °F 73.9 °F 81% 29.99 in 10.0 mi SW 4.6 mph - N/A   Partly Cloudy
8:54 AM 82.9 °F 89.4 °F 73.9 °F 74% 30.00 in 10.0 mi SW 10.4 mph - N/A   Partly Cloudy
9:54 AM 86.0 °F 93.8 °F 73.9 °F 67% 30.02 in 10.0 mi SW 6.9 mph - N/A   Partly Cloudy
10:54 AM 89.1 °F 97.0 °F 73.0 °F 59% 30.02 in 10.0 mi SW 6.9 mph - N/A   Partly Cloudy
11:54 AM 91.0 °F 98.2 °F 72.0 °F 53% 30.02 in 10.0 mi SW 8.1 mph - N/A   Partly Cloudy
12:54 PM 93.0 °F 100.1 °F 71.1 °F 49% 30.02 in 10.0 mi WSW 11.5 mph 23.0 mph N/A   Scattered Clouds
1:54 PM 93.9 °F 102.1 °F 72.0 °F 49% 30.03 in 10.0 mi WSW 11.5 mph 16.1 mph N/A   Scattered Clouds
2:54 PM 93.9 °F 99.1 °F 69.1 °F 44% 30.01 in 10.0 mi WSW 8.1 mph - N/A   Scattered Clouds
3:54 PM 93.9 °F 97.5 °F 66.9 °F 41% 29.99 in 10.0 mi WSW 11.5 mph - N/A   Partly Cloudy
4:54 PM 93.9 °F 99.1 °F 69.1 °F 44% 29.97 in 10.0 mi West 8.1 mph - N/A   Partly Cloudy
5:54 PM 91.0 °F 95.6 °F 69.1 °F 48% 29.97 in 10.0 mi SSW 10.4 mph - N/A   Partly Cloudy
6:54 PM 89.1 °F 94.1 °F 70.0 °F 53% 29.96 in 10.0 mi SW 9.2 mph - N/A   Clear
7:54 PM 86.0 °F 91.5 °F 71.1 °F 61% 29.99 in 10.0 mi SSW 8.1 mph 17.3 mph N/A   Partly Cloudy
8:54 PM 84.0 °F 89.6 °F 72.0 °F 67% 30.03 in 10.0 mi SSW 9.2 mph - N/A   Clear
9:54 PM 82.9 °F 88.0 °F 72.0 °F 69% 30.04 in 10.0 mi SSW 8.1 mph - N/A   Clear
10:54 PM 82.0 °F 86.3 °F 71.1 °F 69% 30.05 in 10.0 mi SSW 4.6 mph - N/A   Clear
11:54 PM 81.0 °F 85.2 °F 72.0 °F 74% 30.04 in 10.0 mi SSW 6.9 mph - N/A   Clear